Voltar ao catálogo

COSMOS 1797

AtivoMilitarLEO
NORAD 17141·PAYLOAD·🇷🇺 Russia

Lançado Nov 21, 1986 de Plesetsk Cosmodrome

Loading…

Próximas Passagens (próximas 24 horas)

TLE

AtualizadoSource: Space-Track

Época: Sep 14, 2026, 15:53 UTC

1 17141U 86092D   26257.66235035  .00000006  00000-0  14294-3 0  9990
2 17141  74.0137 138.4772 0018512 187.0473 201.0076 12.51645438819213

Acompanhe COSMOS 1797 em tempo real com AllMySat

Download on the App Store